Lapse_Rate
8.2 9.3 6.1 6.2 6.2 6.4 6.5 6.6 6.3 6.2 6.3 6.5 6.4 6.4 6.4 6.5 6.4 6.5 6.5 6.5 7.0 7.8 7.8 7.3 7.1 7.3 7.2 7.1 7.4 7.1 6.8 6.6 6.4 6.0 5.9 6.3 6.5 6.5 6.3 6.1 6.4 8.1 6.8
9.7 9.4 6.2 6.1 6.0 6.4 6.5 6.3 6.5 6.3 6.2 6.4 6.5 6.6 6.4 6.6 6.7 6.7 6.9 7.0 7.1 7.4 7.7 6.9 6.7 6.9 7.0 7.3 7.3 7.2 6.8 6.0 5.9 6.1 6.2 6.3 6.5 6.7 6.3 6.3 7.0 7.0 6.6
9.5 9.4 7.6 6.0 5.9 6.2 6.3 6.1 6.1 6.4 6.6 6.7 6.3 6.4 6.4 6.4 6.5 6.7 7.1 7.3 6.7 6.7 6.8 7.0 7.3 7.1 7.2 6.6 6.6 6.6 6.3 6.1 5.8 5.9 7.0 8.9 7.4 6.8 6.6 6.6 6.7 6.9 6.7
9.8 9.5 9.0 5.9 5.7 5.9 5.9 5.9 6.0 6.2 6.3 6.4 6.4 6.3 6.2 6.5 6.5 7.0 7.0 7.5 6.9 6.7 6.8 6.6 7.4 6.7 6.9 6.9 6.6 6.6 6.5 6.0 5.7 6.2 9.3 9.6 9.4 6.9 6.7 6.6 6.7 6.8 6.9
9.7 9.5 9.1 6.0 5.9 5.6 5.6 5.7 5.6 5.9 6.1 6.3 6.6 6.2 6.2 7.0 6.7 6.2 6.5 6.8 7.0 6.6 6.5 6.7 7.5 7.1 6.6 6.5 6.9 7.1 6.6 5.9 6.0 7.9 9.6 9.6 9.6 7.7 6.9 6.8 6.6 6.8 7.3
9.5 9.4 7.8 6.1 6.2 6.1 5.9 5.7 5.9 5.9 5.7 6.0 6.2 6.3 6.4 6.9 6.6 6.6 6.3 5.7 6.2 6.2 6.3 6.6 7.2 6.8 6.5 6.9 7.0 6.8 6.2 5.6 6.9 9.1 8.1 8.7 9.1 7.7 7.1 6.9 7.0 6.7 6.8
9.4 9.5 8.2 5.9 6.2 6.3 6.1 5.7 5.9 6.0 6.0 6.0 6.3 6.3 6.3 6.5 6.3 6.6 6.8 5.7 6.0 6.2 6.3 7.3 8.0 7.2 7.0 7.0 6.9 6.6 5.9 6.1 7.1 7.2 7.2 7.9 9.3 7.9 7.2 7.0 7.7 7.4 7.2
8.2 8.2 9.1 6.1 6.1 6.2 6.1 6.0 5.8 5.7 5.8 6.1 6.1 6.2 6.4 6.1 5.8 6.0 6.6 6.0 6.3 6.7 6.8 7.7 7.3 7.1 7.4 7.1 6.8 6.3 6.2 6.8 7.6 7.1 8.9 7.8 8.7 7.8 7.0 6.4 6.8 6.9 6.8
8.0 7.6 8.0 8.9 7.2 5.9 6.0 6.1 6.2 5.8 5.6 6.0 6.3 6.2 6.2 5.9 5.8 6.1 6.3 6.6 6.5 6.7 6.1 6.3 6.9 7.1 7.1 7.0 6.6 6.3 6.7 7.4 8.9 9.0 9.0 7.8 8.2 8.4 7.5 6.5 6.4 6.6 6.7
7.0 6.7 8.7 9.3 9.1 9.0 8.7 6.0 6.3 6.4 5.8 6.2 6.4 6.5 6.1 5.9 6.0 6.2 6.6 6.3 6.6 6.3 6.5 6.7 6.8 7.2 7.1 6.9 6.7 6.4 6.8 8.2 9.8 9.1 7.8 8.2 8.0 8.5 7.6 7.4 7.3 7.2 6.9
6.8 6.9 7.2 8.3 9.3 9.3 9.2 8.5 6.0 6.2 6.3 6.3 6.9 6.2 6.1 8.6 7.9 6.1 8.2 6.1 7.6 7.7 6.0 7.0 7.2 7.1 6.9 7.1 7.0 6.9 7.7 9.7 9.7 9.6 9.3 8.1 7.8 8.6 7.8 7.6 7.7 7.3 7.2
7.7 7.3 7.3 7.6 7.5 8.5 8.7 8.4 7.5 8.2 7.3 7.7 8.1 8.1 9.1 9.2 9.2 9.3 7.2 6.4 8.4 8.0 6.8 7.3 7.5 7.3 7.9 8.2 7.6 7.6 9.7 9.7 9.7 9.6 8.7 7.5 8.5 8.7 7.8 8.5 8.1 8.0 8.0
7.3 7.8 7.6 7.4 7.4 7.6 8.9 8.9 8.2 7.4 7.1 7.8 8.3 8.3 8.4 8.6 9.2 9.2 8.8 8.3 9.2 8.1 8.9 8.1 8.3 9.3 8.8 7.4 8.4 8.6 9.5 9.7 9.7 9.7 8.5 8.2 8.3 8.2 8.7 8.7 8.4 8.9 8.6
6.5 6.3 6.8 7.4 7.4 7.1 7.9 8.9 9.7 8.7 7.5 7.2 7.6 7.8 6.5 7.2 8.7 9.7 9.7 9.6 9.6 9.5 9.7 9.2 9.4 7.0 6.9 7.6 8.4 7.9 8.8 9.7 9.7 9.5 8.3 7.6 8.2 8.6 8.7 8.8 8.9 8.6 8.5
6.9 6.5 6.6 6.9 6.6 7.0 7.0 8.6 8.0 8.2 8.4 7.7 7.6 7.3 6.0 6.7 8.0 9.3 9.8 9.7 9.7 9.7 9.7 8.9 8.4 7.0 7.5 8.8 9.2 8.3 9.6 9.6 9.7 9.7 9.3 7.7 8.1 8.3 8.8 8.9 8.4 8.6 8.3
6.6 6.1 6.0 6.6 6.8 6.8 7.2 7.5 6.4 5.1 6.4 8.2 7.0 7.0 6.1 7.1 7.2 7.1 9.2 9.9 9.9 9.6 9.6 8.7 7.7 8.1 8.0 9.7 9.1 9.7 9.7 9.8 9.7 9.6 9.4 7.7 7.7 8.0 8.7 8.3 8.3 8.7 8.7
7.4 6.1 5.8 5.5 6.0 6.8 6.9 7.2 7.2 6.2 5.0 5.9 7.3 7.4 6.9 5.8 6.2 6.5 7.1 8.9 9.8 9.6 9.6 9.2 7.7 9.3 8.1 9.7 9.8 9.7 9.6 9.6 9.8 9.7 8.2 8.1 7.6 7.5 7.8 8.3 8.4 8.8 8.7
5.5 5.6 5.5 5.7 5.3 6.0 6.6 6.8 6.5 6.9 5.7 4.9 5.2 6.4 7.4 6.5 5.9 5.5 6.4 6.8 9.2 9.6 9.4 9.7 7.5 8.4 9.7 9.5 9.6 9.6 9.8 9.6 9.6 9.6 8.4 7.0 7.5 8.0 7.8 7.7 8.2 7.9 6.2
4.7 5.0 4.8 4.7 5.2 5.3 6.3 6.3 6.0 6.1 6.0 6.3 4.1 4.7 6.1 7.0 6.7 5.7 5.5 6.5 7.7 8.3 9.2 8.9 8.5 7.9 8.9 9.4 9.3 9.3 9.3 9.5 9.6 9.0 6.9 6.4 6.1 6.2 7.2 7.3 6.2 6.4 7.0
4.2 3.8 4.0 4.4 4.7 5.4 5.7 6.0 4.9 4.2 5.1 4.9 4.3 4.4 5.6 6.1 6.6 6.3 4.8 4.6 5.7 7.5 8.1 8.5 7.9 8.1 8.2 9.2 9.0 8.2 8.7 9.4 9.4 9.6 7.8 5.9 5.3 5.0 5.5 6.2 6.3 6.4 7.4
4.9 4.1 3.9 4.2 4.7 5.2 5.1 4.8 3.7 4.1 4.8 4.2 5.0 4.8 4.6 5.8 6.0 5.9 5.9 3.9 3.4 5.1 7.0 8.4 7.8 6.8 7.9 8.6 6.9 6.4 7.1 7.5 8.4 8.7 8.3 6.8 4.9 4.3 5.2 5.3 6.9 7.7 7.5
4.8 5.0 3.7 2.9 3.4 4.9 4.9 4.7 5.5 5.8 5.4 5.9 4.1 4.3 4.7 6.1 5.8 6.1 5.6 4.6 4.0 3.9 5.5 5.4 6.3 6.6 6.3 7.3 7.3 6.3 5.4 5.1 6.4 7.5 7.8 8.0 6.3 4.2 5.4 6.6 7.2 7.7 7.3
4.7 4.6 6.1 4.8 4.7 4.2 4.0 3.9 3.7 3.5 3.0 3.3 2.9 2.9 3.9 5.0 5.2 5.6 5.7 5.5 4.1 4.7 5.3 3.6 5.1 5.4 5.5 5.9 8.2 8.4 5.6 6.7 5.0 5.3 6.3 7.5 7.5 6.4 5.6 6.3 7.0 6.7 7.1
5.1 4.9 5.0 5.7 5.8 4.4 3.6 3.4 3.6 4.6 4.3 4.1 4.1 3.2 3.9 4.1 4.3 4.6 5.3 5.7 6.1 5.4 4.8 5.3 4.4 4.7 4.3 4.8 5.6 8.2 9.4 8.3 7.8 5.4 5.3 6.8 7.3 6.7 6.0 5.9 6.4 6.1 6.3
4.7 4.6 5.4 6.0 6.2 6.2 5.7 5.9 6.0 5.4 5.9 5.3 5.4 5.1 4.4 4.2 4.6 5.0 4.6 5.7 5.4 4.8 5.1 5.3 5.4 6.0 5.6 5.0 5.1 6.1 6.4 8.8 9.1 8.5 7.6 6.1 6.9 7.0 6.9 6.6 6.4 6.0 5.5
5.3 4.2 4.1 4.9 4.4 4.1 6.1 6.4 6.2 6.2 5.7 5.4 6.0 5.5 5.3 4.6 4.6 5.0 5.1 5.4 5.8 5.2 4.7 4.4 5.1 6.0 5.8 5.6 5.0 6.8 6.6 7.2 8.5 8.6 8.3 8.6 8.2 8.1 7.4 6.8 6.2 5.4 4.7
Wind_Speed
8 14 15 20 20 18 16 16 16 19 19 19 19 19 19 18 18 17 16 15 12 11 14 9 11 15 18 15 15 14 14 15 15 16 15 14 14 15 13 11 9 15 14
12 16 16 20 21 19 17 15 13 17 19 19 19 19 18 18 18 17 16 16 14 11 13 13 15 15 17 17 15 14 14 15 16 17 18 18 17 18 16 13 14 16 18
9 17 19 18 20 20 18 17 16 14 15 17 18 18 17 17 17 16 18 17 16 12 10 13 14 13 12 12 12 13 13 15 15 14 11 15 14 14 14 16 15 17 17
9 15 18 18 21 21 21 19 18 17 16 16 19 19 18 17 16 17 16 16 15 13 11 12 12 13 11 11 13 13 13 13 13 14 9 10 11 11 11 12 12 13 13
9 12 14 20 20 20 20 20 20 19 19 17 16 16 16 18 18 18 17 14 11 11 10 9 13 14 10 11 12 13 14 12 13 10 10 11 10 11 10 10 11 11 11
9 10 12 16 19 20 20 20 19 18 19 18 17 16 16 15 17 19 17 13 10 10 10 10 14 13 9 11 15 14 14 12 9 12 11 10 12 11 10 9 11 13 15
9 9 12 12 18 19 20 19 19 18 18 18 18 18 18 17 16 17 18 15 11 12 11 12 15 12 13 16 19 18 16 13 13 13 10 9 12 12 11 9 13 15 16
9 8 9 11 14 15 19 20 19 18 19 18 18 17 18 19 20 18 19 17 12 11 11 11 12 13 14 17 17 18 13 12 10 11 11 13 15 14 12 11 13 17 18
8 8 9 11 13 14 17 18 20 18 19 19 19 18 18 18 19 18 18 19 14 12 12 12 13 12 11 18 17 19 12 8 12 9 12 12 14 12 11 13 17 18 19
6 7 9 11 12 15 16 18 20 20 20 21 20 20 21 20 19 18 17 16 14 13 13 13 14 13 15 19 17 17 13 8 8 11 10 12 14 12 11 13 15 18 19
6 7 7 9 11 13 14 17 20 21 22 22 22 21 26 18 18 16 11 17 15 14 14 14 14 13 18 18 20 18 14 11 11 7 9 11 14 8 8 11 13 14 14
11 9 8 8 9 12 13 14 17 19 20 21 22 23 19 16 15 14 14 15 15 15 14 15 14 19 18 14 14 17 10 11 10 10 8 11 11 9 7 10 10 12 11
12 8 9 9 9 10 10 12 12 13 15 17 21 21 15 13 14 14 14 15 14 15 16 15 17 15 13 13 11 10 9 9 6 6 11 12 12 11 10 11 10 11 12
15 14 14 13 11 11 10 7 10 7 13 11 18 21 14 8 13 13 12 15 16 17 17 16 14 12 12 13 14 10 8 8 8 11 10 11 11 12 13 11 12 14 14
15 15 14 13 13 12 12 9 8 10 8 16 17 20 16 10 10 13 12 14 15 17 15 13 11 12 11 12 11 13 13 11 9 7 12 13 14 12 12 14 13 13 15
16 15 14 14 13 12 12 12 9 8 12 15 16 19 19 15 10 8 10 10 13 16 16 15 11 9 7 13 10 16 13 13 10 9 9 11 11 15 14 13 15 14 13
12 12 13 14 14 14 14 12 9 9 9 9 12 22 23 17 13 11 9 10 12 17 18 16 12 15 7 11 11 12 11 11 11 11 11 10 10 13 14 14 15 13 14
10 12 12 11 13 15 13 11 9 8 8 6 11 14 22 23 18 11 9 9 16 16 15 10 9 8 11 10 9 8 8 10 11 9 8 6 7 10 13 15 12 12 14
7 9 10 11 13 14 13 10 9 9 8 9 11 10 16 20 22 15 8 10 16 10 11 11 11 10 9 11 10 8 7 7 10 10 8 5 6 5 8 11 14 14 13
4 3 6 7 10 11 9 8 7 6 6 6 6 8 13 13 18 16 8 6 9 9 11 11 13 10 9 10 9 8 6 6 9 9 9 6 7 7 10 16 15 13 17
5 5 2 4 8 9 8 8 7 8 8 5 5 12 12 13 16 12 11 8 4 5 8 13 11 13 8 11 8 6 5 4 7 6 8 8 7 6 8 10 12 12 12
10 7 6 5 5 6 6 6 4 8 7 8 6 5 9 13 15 12 11 12 11 7 6 9 9 9 6 10 8 7 3 2 3 5 5 6 8 7 6 9 11 11 11
11 11 7 5 5 4 6 5 4 5 3 3 3 2 3 9 11 11 10 10 12 11 10 13 10 13 6 7 7 7 3 4 4 2 6 7 8 7 9 8 10 10 10
11 10 10 6 5 4 4 3 4 5 5 4 5 3 4 6 7 11 11 11 13 11 12 13 12 12 9 10 2 7 10 7 7 4 3 7 8 8 7 7 10 10 11
13 11 10 9 7 5 5 5 5 4 2 2 3 5 6 6 6 7 8 10 11 10 13 16 15 15 12 12 10 9 3 7 10 7 7 6 8 8 7 10 11 11 11
14 14 13 13 13 13 6 3 4 5 6 4 6 5 5 4 5 7 6 8 11 12 13 13 17 19 15 13 13 12 10 8 8 7 6 13 11 10 9 9 10 11 12
Wind_Direction
161 160 161 149 145 148 146 144 141 152 150 151 153 154 154 152 147 147 141 137 138 144 147 142 156 142 139 132 126 116 112 105 96 92 90 92 110 117 110 118 144 116 120
157 170 164 154 153 153 152 150 148 145 153 157 159 161 159 156 155 152 148 142 133 123 117 108 113 124 128 126 126 125 118 114 108 104 102 94 90 96 93 94 97 104 103
161 171 173 160 158 157 157 156 157 158 160 164 165 162 163 163 162 159 155 145 138 133 129 119 115 109 113 125 132 132 126 124 116 119 146 107 94 91 95 93 93 97 99
154 171 176 167 165 164 161 162 162 164 167 166 167 170 165 168 168 159 158 147 139 143 147 138 125 124 129 138 138 135 134 131 126 137 143 117 110 106 106 106 105 102 99
172 177 171 168 170 169 165 167 167 168 170 171 174 164 172 175 163 147 144 133 145 148 152 148 137 121 139 148 147 135 134 133 143 176 134 129 120 107 117 121 120 117 108
174 174 150 179 177 174 169 171 173 177 170 170 173 177 177 169 156 147 135 125 142 146 144 150 134 130 163 143 128 130 125 127 176 112 107 115 117 108 128 111 118 118 116
162 167 170 181 177 180 178 175 179 182 180 177 173 176 168 162 151 144 132 134 145 155 152 162 136 155 159 131 119 109 105 114 121 114 119 137 114 116 100 123 123 125 118
166 171 175 183 191 191 184 185 184 185 185 181 177 178 171 158 152 150 142 141 153 160 158 160 155 166 163 137 123 113 112 115 118 132 125 104 127 111 90 95 114 116 116
172 184 188 192 193 197 194 191 192 189 187 182 178 174 167 152 149 152 150 145 165 168 162 176 172 174 170 143 137 126 131 158 140 124 110 122 112 121 98 97 97 101 99
186 201 203 201 201 200 198 199 197 196 189 184 174 173 161 152 151 151 145 154 167 167 171 176 172 170 143 140 131 123 132 155 151 125 103 109 106 113 108 97 95 92 88
200 198 202 210 209 214 210 197 202 202 197 191 187 173 158 169 169 163 173 164 177 167 176 184 185 176 136 135 132 133 153 177 155 142 126 111 112 118 107 96 95 102 100
211 205 214 212 214 213 211 215 207 205 206 199 195 181 188 190 184 182 166 172 169 177 186 189 192 150 159 146 137 143 177 164 166 155 120 110 123 153 131 114 110 104 106
222 227 215 224 231 218 215 213 209 209 203 207 200 189 190 181 170 178 172 177 175 186 184 187 162 172 167 149 149 159 189 152 158 172 134 133 139 133 127 122 128 112 109
233 242 249 240 230 227 222 215 215 202 204 201 199 187 170 174 177 183 180 180 180 183 183 178 181 162 162 156 158 155 163 164 163 142 148 140 154 146 138 139 139 133 127
244 245 246 235 223 220 221 219 209 217 205 203 196 187 176 176 185 184 185 184 185 185 181 175 177 156 169 154 166 162 181 181 181 163 151 157 147 150 154 154 142 137 133
242 242 237 230 227 219 214 214 204 211 207 208 198 192 183 186 186 183 185 188 187 184 188 176 170 156 170 174 180 182 190 185 187 158 153 164 168 159 158 153 150 143 138
241 241 236 229 222 217 215 211 208 203 202 205 201 198 192 182 190 183 184 189 190 188 187 171 172 169 158 183 181 188 182 186 191 168 146 160 167 160 164 167 154 161 163
259 247 239 227 216 209 208 203 202 201 201 197 194 200 199 190 188 195 188 189 191 187 184 182 163 176 179 181 178 180 185 183 181 165 158 124 166 178 172 166 168 175 147
278 260 237 221 214 206 203 192 194 199 200 203 186 192 205 201 194 188 198 192 191 179 184 184 175 173 182 184 176 170 174 178 179 163 122 121 121 117 151 134 120 123 119
349 290 248 221 211 202 191 180 180 194 201 188 184 191 204 205 197 194 181 196 194 198 183 180 174 176 178 179 164 161 169 175 179 180 146 126 109 111 114 121 124 114 102
36 36 47 204 193 181 180 171 184 190 194 189 182 195 197 205 201 195 196 162 158 196 200 188 176 160 179 166 143 131 140 179 186 179 170 151 127 118 128 122 133 129 124
24 32 52 99 151 170 173 193 185 188 198 202 199 191 200 211 202 196 185 179 173 167 176 167 174 167 164 172 170 152 155 164 236 192 188 177 162 150 159 166 154 149 152
18 7 23 88 127 147 159 160 129 117 116 167 178 186 186 221 200 197 191 184 176 182 177 167 170 172 155 187 206 176 157 191 145 217 216 194 179 181 170 177 159 158 167
16 14 16 20 121 133 142 159 171 194 198 201 211 194 180 206 201 198 197 187 184 183 178 180 172 168 154 185 218 237 215 157 184 179 221 207 199 196 179 180 176 169 171
23 15 14 39 40 139 163 175 176 185 210 136 176 182 183 193 199 198 198 189 185 184 190 185 183 181 179 179 184 185 258 205 204 195 191 192 204 203 194 193 185 178 178
27 27 24 26 32 27 24 166 188 199 197 198 203 200 198 191 192 198 192 199 191 189 190 193 194 189 190 193 184 191 194 195 195 200 211 194 202 195 196 197 192 186 183